Weather History for Robstown, TX

Change the Weather History Date:

Friday, March 15, 2013

  Actual Average (KCRP) Record (KCRP)
Temperature  
Mean Temperature 64 °F 66 °F  
Max Temperature 82 °F 76 °F 94 °F (2008)
Min Temperature 47 °F 56 °F 38 °F (1962)
Degree Days  
Heating Degree Days 0 3  
Month to date heating degree days 53  
Since 1 July heating degree days 853  
Cooling Degree Days 0 3  
Month to date cooling degree days 44  
Year to date cooling degree days 120  
Growing Degree Days 14 (Base 50)    
Moisture  
Dew Point 52 °F    
Average Humidity 65    
Maximum Humidity 95    
Minimum Humidity 28    
Precipitation  
Precipitation 0.00 in 0.06 in 2.51 in (1994)
Month to date precipitation 0.97  
Year to date precipitation 4.44  
Snow  
Snow 0.00 in - - ()
Month to date snowfall  
Since 1 July snowfall  
Snow Depth -    
Sea Level Pressure  
Sea Level Pressure 30.15 in    
Wind  
Wind Speed 10 mph (SSE)    
Max Wind Speed 25 mph    
Max Gust Speed 32 mph    
Visibility 10 miles    
Events Fog    
T = Trace of Precipitation, MM = Missing Value Source: NWS Daily Summary

Daily Weather History Graph

Daily Weather History Graph

Search for Another Location

Airport:

Trip Planner

Search our weather history database for the weather conditions in past years. The results will help you decide how hot, cold, wet, or windy it might be!

Date:

Astronomy

Mar. 15, 2013 Rise Set
Actual Time 7:39 AM CDT 7:39 PM CDT
Civil Twilight 7:16 AM CDT 8:02 PM CDT
Nautical Twilight 6:49 AM CDT 8:30 PM CDT
Astronomical Twilight 6:22 AM CDT 8:57 PM CDT
Moon 9:53 AM CDT (3/15) 11:29 PM CDT (3/15)
Length of Visible Light 12h 46m
Length of Day
11h 59m
Waxing Crescent, 15% of the Moon is Illuminated
Mar 15
Waxing Crescent
Mar 19
First Quarter
Mar 27
Full
Apr 2
Last Quarter
Apr 10
New

Hourly Weather History & Observations

Time (CDT) Temp. Heat Index Dew Point Humidity Pressure Visibility Wind Dir Wind Speed Gust Speed Precip Events Conditions
12:15 AM 59.9 °F - 52.7 °F 77% 30.28 in 10.0 mi SE 6.9 mph - N/A   Clear
12:35 AM 59.0 °F - 52.2 °F 78% 30.28 in 10.0 mi SE 6.9 mph - N/A   Clear
12:55 AM 58.1 °F - 51.6 °F 79% 30.28 in 10.0 mi SE 5.8 mph - N/A   Clear
1:15 AM 57.4 °F - 51.3 °F 80% 30.27 in 10.0 mi SE 6.9 mph - N/A   Clear
1:35 AM 57.2 °F - 51.4 °F 81% 30.27 in 10.0 mi SE 6.9 mph - N/A   Clear
1:55 AM 57.2 °F - 52.2 °F 83% 30.26 in 10.0 mi SE 8.1 mph - N/A   Clear
2:15 AM 56.7 °F - 51.8 °F 84% 30.25 in 10.0 mi ESE 8.1 mph - N/A   Clear
2:35 AM 55.9 °F - 51.4 °F 85% 30.24 in 10.0 mi SE 8.1 mph - N/A   Clear
2:55 AM 57.2 °F - 52.7 °F 85% 30.23 in 10.0 mi SSE 9.2 mph - N/A   Clear
3:15 AM 57.4 °F - 52.3 °F 83% 30.22 in 10.0 mi SSE 8.1 mph - N/A   Clear
3:55 AM 55.9 °F - 51.6 °F 85% 30.21 in 10.0 mi SE 5.8 mph - N/A   Clear
4:15 AM 54.9 °F - 51.3 °F 88% 30.21 in 10.0 mi SE 6.9 mph - N/A   Clear
4:35 AM 53.4 °F - 50.2 °F 89% 30.21 in 10.0 mi SE 4.6 mph - N/A   Clear
4:55 AM 52.7 °F - 50.0 °F 91% 30.21 in 10.0 mi SE 5.8 mph - N/A   Clear
5:15 AM 53.1 °F - 50.5 °F 91% 30.21 in 10.0 mi SE 5.8 mph - N/A   Clear
5:35 AM 53.4 °F - 51.3 °F 92% 30.21 in 10.0 mi South 3.5 mph - N/A   Clear
5:55 AM 48.6 °F - 45.9 °F 90% 30.22 in 10.0 mi West 6.9 mph - N/A   Clear
6:15 AM 51.1 °F - 48.4 °F 90% 30.22 in 10.0 mi WNW 3.5 mph - N/A   Clear
6:35 AM 50.9 °F - 48.7 °F 92% 30.22 in 10.0 mi Calm Calm - N/A   Clear
6:55 AM 50.4 °F - 48.0 °F 92% 30.22 in 10.0 mi Calm Calm - N/A   Clear
7:15 AM 50.4 °F - 48.6 °F 94% 30.22 in 10.0 mi Calm Calm - N/A   Clear
7:55 AM 47.5 °F - 45.9 °F 94% 30.22 in 0.2 mi Calm Calm - N/A Fog Fog
8:15 AM 48.0 °F - 46.8 °F 95% 30.22 in 0.5 mi Calm Calm - N/A Fog Fog
8:35 AM 50.2 °F - 48.9 °F 95% 30.23 in 7.0 mi Calm Calm - N/A   Clear
8:55 AM 55.8 °F - 54.0 °F 94% 30.24 in 7.0 mi Calm Calm - N/A   Clear
9:15 AM 58.8 °F - 55.4 °F 88% 30.24 in 10.0 mi Calm Calm - N/A   Clear
9:35 AM 63.0 °F - 56.7 °F 80% 30.24 in 10.0 mi South 4.6 mph - N/A   Clear
10:55 AM 73.4 °F - 56.5 °F 55% 30.24 in 10.0 mi South 19.6 mph - N/A   Clear
11:15 AM 73.9 °F - 54.9 °F 51% 30.23 in 10.0 mi South 18.4 mph 25.3 mph N/A   Clear
11:35 AM 75.4 °F - 54.1 °F 48% 30.23 in 10.0 mi South 18.4 mph 24.2 mph N/A   Clear
11:55 AM 76.8 °F - 52.9 °F 43% 30.22 in 10.0 mi South 16.1 mph 23.0 mph N/A   Clear
12:15 PM 78.3 °F - 50.4 °F 38% 30.21 in 10.0 mi South 17.3 mph 23.0 mph N/A   Clear
12:35 PM 80.1 °F - 48.0 °F 32% 30.20 in 10.0 mi South 18.4 mph 24.2 mph N/A   Clear
12:55 PM 80.2 °F - 47.7 °F 32% 30.19 in 10.0 mi South 17.3 mph 26.5 mph N/A   Clear
1:15 PM 80.6 °F - 45.7 °F 29% 30.18 in 10.0 mi SSE 17.3 mph 24.2 mph N/A   Clear
1:35 PM 81.3 °F - 46.0 °F 29% 30.17 in 10.0 mi SSE 17.3 mph 26.5 mph N/A   Clear
1:55 PM 81.9 °F - 45.5 °F 28% 30.15 in 10.0 mi South 17.3 mph 24.2 mph N/A   Clear
2:15 PM 81.9 °F - 48.7 °F 31% 30.14 in 10.0 mi SSE 16.1 mph 23.0 mph N/A   Clear
2:35 PM 81.9 °F - 50.7 °F 34% 30.12 in 10.0 mi SE 18.4 mph 25.3 mph N/A   Clear
2:55 PM 81.9 °F - 51.4 °F 35% 30.11 in 10.0 mi SSE 15.0 mph 24.2 mph N/A   Clear
3:15 PM 81.7 °F - 50.9 °F 34% 30.10 in 10.0 mi SSE 16.1 mph 21.9 mph N/A   Clear
3:35 PM 82.2 °F - 51.3 °F 34% 30.09 in 10.0 mi SSE 16.1 mph 23.0 mph N/A   Clear
3:55 PM 81.9 °F - 52.3 °F 36% 30.08 in 10.0 mi SSE 13.8 mph 27.6 mph N/A   Clear
4:15 PM 82.2 °F 81.3 °F 53.4 °F 37% 30.07 in 10.0 mi SSE 19.6 mph 25.3 mph N/A   Clear
4:35 PM 81.5 °F 80.9 °F 54.3 °F 39% 30.06 in 10.0 mi SSE 20.7 mph 26.5 mph N/A   Clear
4:55 PM 80.6 °F 80.4 °F 54.9 °F 41% 30.06 in 10.0 mi SE 20.7 mph 26.5 mph N/A   Clear
5:15 PM 80.1 °F 80.1 °F 54.5 °F 41% 30.05 in 10.0 mi SSE 25.3 mph 32.2 mph N/A   Clear
5:35 PM 79.7 °F - 52.7 °F 39% 30.05 in 10.0 mi SE 23.0 mph 31.1 mph N/A   Clear
5:55 PM 78.6 °F - 51.6 °F 39% 30.05 in 10.0 mi SE 25.3 mph 32.2 mph N/A   Clear
6:15 PM 78.1 °F - 47.3 °F 34% 30.05 in 10.0 mi SE 24.2 mph 31.1 mph N/A   Clear
6:35 PM 76.3 °F - 48.9 °F 38% 30.05 in 10.0 mi SE 24.2 mph 28.8 mph N/A   Clear
6:55 PM 75.2 °F - 51.4 °F 43% 30.05 in 10.0 mi SSE 18.4 mph - N/A   Clear
7:15 PM 73.6 °F - 53.4 °F 49% 30.05 in 10.0 mi SE 21.9 mph 28.8 mph N/A   Clear
7:35 PM 72.1 °F - 54.5 °F 54% 30.04 in 10.0 mi SE 21.9 mph - N/A   Clear
7:55 PM 70.9 °F - 55.4 °F 58% 30.05 in 10.0 mi SSE 18.4 mph 24.2 mph N/A   Clear
8:15 PM 70.0 °F - 56.3 °F 62% 30.05 in 10.0 mi SSE 20.7 mph 25.3 mph N/A   Clear
8:35 PM 69.3 °F - 57.4 °F 66% 30.05 in 10.0 mi SSE 19.6 mph 26.5 mph N/A   Clear
8:55 PM 68.9 °F - 57.7 °F 68% 30.05 in 10.0 mi SSE 19.6 mph 27.6 mph N/A   Clear
9:15 PM 68.5 °F - 58.3 °F 70% 30.06 in 10.0 mi SSE 20.7 mph 27.6 mph N/A   Clear
9:35 PM 68.0 °F - 58.5 °F 71% 30.06 in 10.0 mi SSE 17.3 mph 24.2 mph N/A   Clear
9:55 PM 67.6 °F - 59.0 °F 74% 30.07 in 10.0 mi SSE 19.6 mph 24.2 mph N/A   Clear
10:15 PM 67.3 °F - 59.4 °F 76% 30.07 in 10.0 mi SSE 17.3 mph - N/A   Clear
10:35 PM 66.6 °F - 59.4 °F 78% 30.07 in 10.0 mi SSE 12.7 mph - N/A   Clear
10:55 PM 65.5 °F - 59.0 °F 80% 30.07 in 10.0 mi SSE 10.4 mph - N/A   Clear
11:15 PM 64.9 °F - 59.0 °F 81% 30.07 in 10.0 mi SSE 10.4 mph - N/A   Clear
11:35 PM 64.4 °F - 58.8 °F 82% 30.07 in 10.0 mi SSE 9.2 mph - N/A   Clear
11:55 PM 63.5 °F - 58.3 °F 83% 30.06 in 10.0 mi SSE 9.2 mph - N/A   Clear